Location: City of Moscow
(46.7306°N, 116.9989°W)
Time: 02:19:44
(UTC+00:00)

Cosmos 1626 Rocket - Pass Details

Date: 17 March 2026
Orbit: 596 x 624 km, 82.5° (Epoch: 13 April)

Event Time Altitude Azimuth Distance (km) Brightness Sun altitude
Rises 11:41:41 0° 357° (N) 2,896 7.3 -23.3°
Reaches altitude 10° 11:44:03 10° 4° (N) 1,981 6.5 -22.9°
Maximum altitude 11:48:12 40° 75° (ENE) 898 4.9 -22.3°
Drops below altitude 10° 11:52:16 10° 146° (SE) 1,949 6.2 -21.6°
Sets 11:54:34 0° 154° (SSE) 2,843 7.0 -21.3°
